When you browse on this site, cookies collect data to enhance your experience and personalize the content and advertising you see.
Visit our Privacy Policy to learn more. By continuing to use the site, you agree to this use of cookies and data.

Hourly Weather Bururi

Today, 21 September, Monday

Time Temperature Precipitation Wind Pressure Humidity
00:00 +19°C° 0 mm 1 mps 616 mmHg 62%
01:00 +19°C° 0 mm 1 mps 615 mmHg 62%
02:00 +19°C° 0 mm 1 mps 615 mmHg 62%
03:00 +19°C° 0 mm 1 mps 615 mmHg 62%
04:00 +19°C° 0 mm 1 mps 615 mmHg 62%
05:00 +18°C° 0 mm 1 mps 615 mmHg 62%
06:00 +21°C° 0 mm 1 mps 616 mmHg 56%
07:00 +23°C° 0 mm 1 mps 617 mmHg 49%
08:00 +25°C° 0 mm 1 mps 619 mmHg 43%
09:00 +25°C° 0 mm 2 mps 618 mmHg 44%
10:00 +26°C° 0 mm 3 mps 618 mmHg 44%
11:00 +26°C° 0 mm 3 mps 618 mmHg 44%
12:00 +26°C° 0 mm 3 mps 617 mmHg 44%
13:00 +26°C° 0 mm 2 mps 617 mmHg 44%
14:00 +26°C° 0 mm 2 mps 616 mmHg 44%
15:00 +26°C° 0 mm 2 mps 616 mmHg 42%
16:00 +26°C° 0 mm 2 mps 616 mmHg 41%
17:00 +26°C° 0 mm 2 mps 616 mmHg 40%
18:00 +25°C° 0 mm 2 mps 616 mmHg 44%
19:00 +23°C° 0 mm 1 mps 616 mmHg 49%
20:00 +22°C° 0 mm 1 mps 616 mmHg 54%
21:00 +21°C° 0 mm 1 mps 617 mmHg 53%
22:00 +21°C° 0 mm 1 mps 617 mmHg 52%
23:00 +21°C° 0 mm 1 mps 617 mmHg 51%

Tomorrow, 22 September, Tuesday

Time Temperature Precipitation Wind Pressure Humidity
00:00 +21°C° 0 mm 1 mps 617 mmHg 51%
01:00 +21°C° 0 mm 1 mps 617 mmHg 51%
02:00 +20°C° 0 mm 1 mps 616 mmHg 51%
03:00 +20°C° 0 mm 1 mps 616 mmHg 55%
04:00 +19°C° 0 mm 1 mps 616 mmHg 59%
05:00 +19°C° 0 mm 1 mps 616 mmHg 63%
06:00 +19°C° 0 mm 2 mps 617 mmHg 58%
07:00 +21°C° 0 mm 2 mps 618 mmHg 53%
08:00 +23°C° 0 mm 2 mps 619 mmHg 48%
09:00 +25°C° 0 mm 3 mps 619 mmHg 45%
10:00 +26°C° 0 mm 3 mps 619 mmHg 42%
11:00 +27°C° 0 mm 3 mps 619 mmHg 39%
12:00 +27°C° 0 mm 3 mps 618 mmHg 40%
13:00 +27°C° 0 mm 3 mps 618 mmHg 42%
14:00 +27°C° 0 mm 3 mps 617 mmHg 43%
15:00 +26°C° 0 mm 3 mps 617 mmHg 44%
16:00 +26°C° 0 mm 2 mps 616 mmHg 44%
17:00 +25°C° 0 mm 2 mps 616 mmHg 45%
18:00 +24°C° 0 mm 1 mps 616 mmHg 49%
19:00 +23°C° 0 mm 1 mps 616 mmHg 54%
20:00 +21°C° 0 mm 1 mps 617 mmHg 58%
21:00 +21°C° 0.1 mm 1 mps 617 mmHg 60%
22:00 +20°C° 0.1 mm 1 mps 617 mmHg 62%
23:00 +20°C° 0.1 mm 1 mps 617 mmHg 64%

Day after tomorrow, 23 September, Wednesday

Time Temperature Precipitation Wind Pressure Humidity
00:00 +20°C° 0 mm 1 mps 616 mmHg 64%
01:00 +19°C° 0 mm 1 mps 616 mmHg 63%
02:00 +19°C° 0 mm 1 mps 616 mmHg 63%
03:00 +19°C° 0 mm 1 mps 616 mmHg 62%
04:00 +19°C° 0 mm 1 mps 616 mmHg 61%
05:00 +18°C° 0 mm 2 mps 616 mmHg 61%
06:00 +19°C° 0 mm 2 mps 617 mmHg 58%
07:00 +20°C° 0 mm 2 mps 618 mmHg 55%
08:00 +21°C° 0 mm 2 mps 619 mmHg 52%
09:00 +23°C° 0 mm 2 mps 619 mmHg 48%
10:00 +25°C° 0 mm 3 mps 619 mmHg 44%
11:00 +26°C° 0 mm 3 mps 619 mmHg 40%
12:00 +27°C° 0 mm 3 mps 618 mmHg 38%
13:00 +27°C° 0 mm 3 mps 617 mmHg 36%
14:00 +28°C° 0 mm 3 mps 616 mmHg 34%
15:00 +27°C° 0 mm 2 mps 616 mmHg 37%
16:00 +26°C° 0 mm 2 mps 615 mmHg 39%
17:00 +25°C° 0 mm 1 mps 615 mmHg 42%
18:00 +24°C° 0 mm 1 mps 615 mmHg 46%
19:00 +23°C° 0 mm 1 mps 616 mmHg 50%
20:00 +21°C° 0 mm 1 mps 616 mmHg 54%
21:00 +21°C° 0 mm 1 mps 616 mmHg 53%
22:00 +21°C° 0 mm 1 mps 616 mmHg 52%
23:00 +20°C° 0 mm 1 mps 616 mmHg 52%

24 September, Thursday

Time Temperature Precipitation Wind Pressure Humidity
00:00 +20°C° 0 mm 1 mps 616 mmHg 52%
01:00 +20°C° 0 mm 1 mps 615 mmHg 53%
02:00 +19°C° 0 mm 1 mps 615 mmHg 54%
03:00 +20°C° 0 mm 1 mps 615 mmHg 53%
04:00 +20°C° 0 mm 1 mps 616 mmHg 52%
05:00 +20°C° 0 mm 1 mps 616 mmHg 50%
06:00 +21°C° 0 mm 1 mps 617 mmHg 49%
07:00 +21°C° 0 mm 2 mps 618 mmHg 48%
08:00 +23°C° 0 mm 2 mps 619 mmHg 46%
09:00 +24°C° 0 mm 3 mps 619 mmHg 43%
10:00 +26°C° 0 mm 3 mps 619 mmHg 41%
11:00 +27°C° 0 mm 3 mps 619 mmHg 38%
12:00 +27°C° 0 mm 3 mps 618 mmHg 38%
13:00 +27°C° 0 mm 3 mps 617 mmHg 38%
14:00 +27°C° 0 mm 2 mps 616 mmHg 38%
15:00 +26°C° 0 mm 2 mps 616 mmHg 40%
16:00 +26°C° 0 mm 2 mps 616 mmHg 41%
17:00 +25°C° 0 mm 2 mps 615 mmHg 42%
18:00 +24°C° 0 mm 2 mps 616 mmHg 47%
19:00 +22°C° 0 mm 1 mps 616 mmHg 52%
20:00 +20°C° 0 mm 1 mps 616 mmHg 58%
21:00 +20°C° 0 mm 1 mps 616 mmHg 59%
22:00 +20°C° 0 mm 1 mps 616 mmHg 59%
23:00 +19°C° 0 mm 1 mps 616 mmHg 60%

25 September, Friday

Time Temperature Precipitation Wind Pressure Humidity
00:00 +19°C° 0 mm 1 mps 615 mmHg 61%
01:00 +19°C° 0 mm 1 mps 615 mmHg 61%
02:00 +19°C° 0 mm 1 mps 615 mmHg 62%
03:00 +18°C° 0 mm 1 mps 615 mmHg 63%
04:00 +18°C° 0 mm 1 mps 615 mmHg 64%
05:00 +18°C° 0 mm 1 mps 615 mmHg 65%
06:00 +20°C° 0 mm 1 mps 616 mmHg 59%
07:00 +22°C° 0 mm 1 mps 618 mmHg 53%
08:00 +24°C° 0 mm 1 mps 619 mmHg 46%
09:00 +25°C° 0.1 mm 2 mps 618 mmHg 46%
10:00 +25°C° 0.1 mm 3 mps 618 mmHg 46%
11:00 +26°C° 0.1 mm 3 mps 618 mmHg 47%
12:00 +26°C° 0.1 mm 3 mps 617 mmHg 47%
13:00 +26°C° 0.1 mm 3 mps 616 mmHg 47%
14:00 +26°C° 0.1 mm 3 mps 615 mmHg 47%
15:00 +25°C° 0.1 mm 3 mps 615 mmHg 49%
16:00 +25°C° 0.1 mm 3 mps 615 mmHg 50%
17:00 +24°C° 0.1 mm 2 mps 615 mmHg 52%
18:00 +23°C° 0 mm 2 mps 615 mmHg 58%
19:00 +21°C° 0 mm 1 mps 615 mmHg 64%
20:00 +19°C° 0 mm 1 mps 615 mmHg 70%
21:00 +19°C° 0 mm 1 mps 615 mmHg 68%
22:00 +19°C° 0 mm 1 mps 615 mmHg 67%
23:00 +19°C° 0 mm 1 mps 615 mmHg 66%

26 September, Saturday

Time Temperature Precipitation Wind Pressure Humidity
00:00 +19°C° 0 mm 1 mps 615 mmHg 66%
01:00 +18°C° 0 mm 1 mps 615 mmHg 66%
02:00 +18°C° 0 mm 1 mps 614 mmHg 66%
03:00 +18°C° 0 mm 1 mps 614 mmHg 67%
04:00 +18°C° 0 mm 1 mps 614 mmHg 68%
05:00 +18°C° 0 mm 1 mps 614 mmHg 69%
06:00 +20°C° 0 mm 1 mps 616 mmHg 61%
07:00 +23°C° 0 mm 1 mps 617 mmHg 53%
08:00 +25°C° 0 mm 1 mps 618 mmHg 45%
09:00 +25°C° 0 mm 1 mps 618 mmHg 45%
10:00 +26°C° 0 mm 2 mps 617 mmHg 45%
11:00 +26°C° 0 mm 3 mps 617 mmHg 45%
12:00 +26°C° 0.1 mm 3 mps 616 mmHg 46%
13:00 +26°C° 0.1 mm 3 mps 615 mmHg 47%
14:00 +26°C° 0.1 mm 3 mps 614 mmHg 48%
15:00 +26°C° 0.2 mm 3 mps 614 mmHg 49%
16:00 +26°C° 0.2 mm 2 mps 614 mmHg 50%
17:00 +25°C° 0.2 mm 2 mps 614 mmHg 50%
18:00 +23°C° 0.1 mm 2 mps 614 mmHg 58%
19:00 +22°C° 0.1 mm 1 mps 614 mmHg 66%
20:00 +20°C° 0.1 mm 1 mps 614 mmHg 73%
21:00 +19°C° 0 mm 1 mps 614 mmHg 73%
22:00 +19°C° 0 mm 1 mps 615 mmHg 72%
23:00 +18°C° 0 mm 2 mps 615 mmHg 72%
Show more